Location: Cheching
(60.0667°N, 164.2167°W)
Time: 11:39:37
(UTC+00:00)

FENGYUN 1C DEB - Pass Details

Date: 28 September 2021
Orbit: 727 x 819 km, 99.4° (Epoch: 17 October)

Event Time Altitude Azimuth Distance (km) Brightness Sun altitude
Rises 06:00:16 0° 23° (NNE) 3,208 ? -10.8°
Reaches altitude 10° 06:04:00 10° 354° (N) 2,301 ? -11.3°
Maximum altitude 06:05:53 12° 332° (NNW) 2,162 ? -11.5°
Drops below altitude 10° 06:07:48 10° 309° (NW) 2,320 ? -11.7°
Sets 06:11:37 0° 281° (W) 3,268 ? -12.2°
